Theta_e
297 297 297 297 296 297 298 298 301 303 303 303 304 307 316 318 315 313 310 306 309 314 320 322 319 318 315 310 308 309 310 308 307 307 308 308 308 311 312 309 310 311 309 309 308 307 310 309 309 311 309 306 307 308 309 310 311 314 314 313 314 318 319 315 317 323 318 312 312 309 308 311 310 310 313 313 311 314 319 321 322 319 317 318 316 316 324
297 298 297 297 296 297 297 298 299 301 303 303 303 310 318 317 316 318 310 304 310 314 315 318 319 317 314 311 310 310 309 307 307 307 307 308 310 311 310 308 308 308 308 308 307 307 309 309 308 310 309 307 307 309 311 311 312 312 312 313 311 313 317 315 314 316 314 315 318 315 315 316 311 308 309 310 309 311 315 316 314 315 317 318 318 319 321
297 298 297 297 296 296 297 297 298 300 302 302 303 309 314 314 316 319 312 305 310 315 314 312 314 314 312 312 314 311 308 308 308 307 307 308 309 310 309 308 308 308 309 309 308 308 308 308 309 309 309 309 308 309 310 310 314 315 314 316 312 309 313 315 312 312 312 314 315 315 318 317 310 307 307 308 309 309 311 312 310 314 318 315 317 322 319
297 297 297 297 296 296 297 297 298 299 300 302 303 306 310 312 313 318 318 311 309 311 312 309 311 312 310 314 317 311 309 310 308 307 307 307 308 309 307 307 309 310 310 310 310 309 308 309 310 310 311 311 309 309 310 309 313 315 313 317 320 315 312 314 316 316 313 311 312 313 315 312 309 309 307 307 310 310 313 313 309 314 318 313 315 319 315
297 297 297 297 296 295 296 297 297 299 300 301 303 305 309 311 310 310 312 312 313 313 311 308 309 310 309 312 315 311 312 312 309 309 307 306 308 308 306 306 308 308 310 310 310 310 311 312 311 311 312 313 311 309 309 308 311 312 309 314 320 315 312 314 314 314 313 310 310 311 310 309 309 310 308 309 312 311 311 311 311 314 312 310 316 319 313
297 297 296 297 296 295 295 296 297 299 300 301 304 308 308 307 308 306 304 307 312 312 309 308 310 309 308 312 313 311 312 312 311 311 309 308 308 308 308 307 307 307 308 309 309 310 313 313 312 311 310 312 312 310 309 307 307 308 307 311 313 308 310 312 310 311 314 310 309 310 309 308 308 308 308 309 311 310 309 310 313 313 309 309 316 318 312
296 296 296 296 296 296 296 296 297 298 300 299 303 307 306 305 308 308 304 305 309 309 307 308 310 309 309 312 312 309 308 309 309 308 308 310 308 308 311 308 305 307 310 311 311 309 310 310 310 310 308 309 310 310 310 308 305 305 307 309 309 308 312 312 308 309 313 311 310 310 308 307 307 307 308 308 310 312 310 311 313 312 310 310 312 311 310
295 296 296 296 296 296 296 296 297 298 300 300 301 302 303 304 306 306 305 309 310 311 311 309 310 311 309 310 309 307 306 306 306 305 305 306 306 307 310 307 304 306 310 313 310 307 309 308 307 307 307 309 310 308 308 308 305 304 305 307 308 308 311 311 309 309 312 313 313 310 307 308 307 306 308 309 310 312 309 308 309 308 308 310 309 308 309
295 295 296 296 296 296 296 296 296 297 299 300 301 300 300 300 301 301 305 311 311 310 311 310 310 311 309 308 309 307 305 303 303 305 305 305 306 309 309 308 306 307 309 309 307 308 313 313 309 308 308 309 310 308 307 306 304 306 307 307 307 308 309 312 311 308 310 312 311 310 309 309 307 305 306 308 310 312 310 308 309 309 308 308 306 307 310
295 295 295 295 295 296 296 295 295 296 298 299 299 299 298 298 300 301 303 308 309 308 309 309 310 309 306 306 307 306 305 304 303 306 306 305 306 309 311 310 308 306 306 307 308 312 316 315 312 310 308 308 309 307 306 305 303 306 307 306 308 308 307 310 310 306 309 310 307 308 310 308 308 310 309 307 309 310 309 307 309 310 308 307 307 309 312
295 295 295 295 295 295 296 296 295 295 296 297 297 297 296 297 300 300 302 306 307 306 306 307 307 307 305 304 304 305 306 306 305 305 306 305 305 307 309 309 308 308 306 305 307 310 310 308 308 306 304 305 306 305 305 304 302 305 305 305 308 309 307 308 308 306 310 311 307 307 308 306 309 315 313 308 309 309 307 309 313 312 309 309 311 310 310
294 295 294 295 295 295 295 295 295 294 295 296 296 296 296 296 297 299 302 306 307 306 305 305 304 303 303 302 302 304 306 305 304 304 304 306 305 305 305 304 304 307 304 301 303 304 303 302 303 302 302 303 303 303 303 303 303 304 303 302 305 307 306 307 307 305 307 308 306 306 307 305 307 311 311 309 312 312 309 312 317 314 310 310 310 310 311
294 294 294 294 294 295 295 295 295 295 294 295 296 296 296 297 297 299 301 304 307 306 304 304 302 301 302 302 302 304 304 304 304 305 305 305 305 303 302 300 300 300 299 300 303 304 304 304 305 304 303 303 305 304 301 302 303 303 302 302 303 304 305 305 305 305 305 305 305 306 305 304 306 309 308 307 308 307 306 309 312 310 308 309 310 312 312
294 294 294 294 294 294 295 295 295 295 294 294 295 295 295 296 297 297 299 302 305 304 302 303 303 301 301 303 302 303 304 304 305 305 303 303 302 301 299 298 298 297 297 301 306 306 307 309 309 307 305 305 307 306 302 301 302 302 303 302 302 303 304 304 304 305 305 306 308 307 305 305 306 305 305 305 304 303 303 307 309 308 308 310 309 311 313
294 294 294 294 294 294 294 294 295 295 294 294 294 295 295 295 296 296 297 299 303 303 301 301 300 299 301 302 301 302 304 304 303 303 303 302 300 299 299 298 296 296 298 302 307 308 306 306 306 306 305 305 304 304 303 302 301 302 303 303 302 302 303 304 305 305 304 304 306 306 306 308 307 303 304 306 305 303 303 304 305 306 307 309 309 310 313
293 294 293 293 294 294 294 294 295 295 295 294 294 294 293 295 296 296 296 297 300 302 300 297 297 298 300 301 300 300 301 302 302 304 306 304 300 298 298 296 296 299 301 305 308 308 306 304 303 304 306 305 303 302 303 302 301 302 302 302 304 305 304 304 304 305 305 304 305 305 306 307 306 305 307 307 304 304 305 305 306 306 306 307 307 308 311
293 293 293 293 293 293 293 294 294 295 295 294 294 293 293 294 295 296 297 297 298 300 299 296 297 299 300 300 300 300 301 301 301 302 303 301 299 299 297 296 297 300 301 304 307 307 306 304 303 304 305 303 302 303 303 302 302 303 302 302 306 309 307 304 303 305 306 305 305 306 304 305 306 306 307 306 305 306 308 308 308 308 306 306 305 306 311
293 293 294 293 293 293 293 293 294 294 295 294 293 293 293 293 294 295 297 297 298 300 298 296 297 299 297 296 298 299 299 300 300 300 301 301 299 298 297 296 298 300 300 303 305 305 304 304 303 303 304 304 301 302 303 303 302 302 301 301 304 307 306 305 305 306 306 304 305 306 305 304 306 307 307 306 306 308 309 309 309 307 307 306 305 306 310
293 293 293 293 293 293 293 293 294 294 295 295 294 293 293 293 293 294 295 295 296 297 297 295 296 297 296 296 298 298 297 298 298 298 300 301 300 298 297 297 298 299 300 303 305 303 303 304 303 303 305 305 302 300 301 301 301 301 300 301 303 304 303 304 305 305 305 305 305 306 305 303 305 307 307 305 305 307 307 308 307 305 304 304 304 305 307
293 293 293 293 293 293 293 293 293 294 294 295 294 293 292 292 293 293 294 294 294 295 295 295 295 297 296 295 297 297 297 298 298 297 297 299 298 299 301 300 300 299 300 303 304 301 301 303 302 301 303 303 301 299 300 301 300 300 299 299 301 301 301 303 304 303 303 304 304 304 304 304 305 306 304 302 303 304 303 303 303 303 303 303 303 305 306
293 293 293 293 293 293 293 293 293 294 294 294 294 293 292 292 292 292 293 293 293 295 297 296 295 296 295 295 296 296 296 297 297 296 297 298 298 298 299 300 300 298 298 300 300 298 299 301 300 299 301 301 300 299 300 301 301 301 298 298 300 300 300 302 303 302 302 303 304 306 306 304 304 304 302 302 303 303 302 302 303 304 305 306 306 307 308
293 293 293 293 293 293 293 293 293 293 293 294 294 294 293 292 291 292 293 293 293 295 297 295 294 294 295 295 296 295 295 296 295 295 296 297 298 298 298 299 300 299 299 301 300 298 299 300 300 300 300 300 300 300 299 299 301 301 299 298 299 300 301 302 302 301 301 302 304 305 305 304 304 305 304 302 303 304 305 305 305 305 308 309 308 307 308
293 293 293 293 293 293 293 293 293 293 293 293 294 293 293 293 292 292 293 293 293 294 294 293 294 295 295 295 295 294 295 295 295 295 295 296 299 300 299 299 299 299 300 302 302 300 301 300 299 299 300 299 300 300 299 298 300 300 299 299 300 300 300 300 301 301 300 300 300 299 299 300 301 301 302 301 301 304 306 305 304 304 306 307 306 306 307
293 293 293 293 293 293 293 293 293 294 294 293 293 293 293 293 292 292 292 292 293 295 295 294 295 296 295 295 294 294 294 294 294 295 295 295 297 300 299 297 296 298 301 301 299 301 302 300 298 298 299 300 299 298 298 298 298 298 298 299 301 300 297 297 298 299 299 300 301 299 298 298 298 297 298 299 301 303 304 302 302 303 304 305 306 306 307
293 293 293 293 293 293 293 293 293 294 293 293 293 293 293 293 292 292 292 292 293 294 295 297 297 296 294 294 294 294 294 294 293 294 294 294 295 297 298 297 295 296 298 297 297 300 301 299 298 299 299 299 298 297 297 297 297 298 298 299 300 299 297 298 299 299 298 300 301 298 297 297 297 297 297 299 300 301 301 300 301 301 302 303 303 303 304
293 293 293 293 293 293 293 293 293 293 293 293 293 293 293 293 293 292 292 293 293 293 294 297 298 295 294 294 294 293 293 294 294 294 294 294 294 295 295 296 295 295 295 295 298 301 301 300 300 299 298 298 297 297 298 297 297 298 298 298 298 298 298 298 298 298 298 298 298 297 297 297 298 298 299 300 300 300 299 299 300 300 301 302 301 299 300
293 293 293 293 293 293 293 293 293 293 293 293 292 293 293 294 293 293 292 293 294 295 295 296 296 295 294 294 293 292 293 294 294 294 294 294 294 294 294 295 296 297 297 296 298 300 299 299 299 299 299 298 297 298 299 298 297 298 298 297 297 298 297 297 298 298 298 298 297 297 297 297 297 297 298 298 298 298 299 300 300 300 300 301 301 299 298
293 293 293 293 293 293 293 292 292 292 293 293 292 293 295 295 293 293 293 293 294 295 295 295 295 294 294 294 293 292 294 294 293 294 294 294 294 294 294 294 296 299 299 299 299 299 299 300 299 298 299 299 297 298 298 297 297 298 298 297 298 299 298 297 298 298 298 297 297 297 296 296 296 296 296 297 297 298 299 299 299 299 299 299 300 299 299
293 293 293 293 293 293 292 292 292 293 294 293 292 294 296 296 294 294 295 294 294 294 294 294 295 295 294 294 293 293 294 294 294 294 295 295 295 295 294 294 296 299 301 301 300 300 301 301 299 299 300 299 298 298 297 298 299 298 297 297 298 298 297 297 297 297 297 296 297 297 296 296 295 295 296 296 297 298 299 298 298 299 299 298 299 300 300
293 293 293 292 292 292 292 292 292 293 294 293 293 294 296 296 295 295 295 295 294 295 294 294 295 295 294 294 294 294 294 294 295 295 295 295 295 295 294 295 297 298 300 300 299 300 301 301 300 299 298 297 297 298 297 298 299 298 297 297 297 297 297 297 297 296 296 296 296 296 296 295 295 295 296 296 297 298 299 299 298 299 298 297 300 301 300
293 293 293 292 292 292 292 293 293 294 295 294 294 295 296 297 296 295 294 295 295 294 294 294 294 294 294 294 293 293 293 294 294 295 294 294 295 295 295 296 296 297 300 301 299 298 300 299 299 299 298 296 297 298 297 297 298 298 297 297 298 298 297 297 296 296 296 295 295 295 295 295 295 295 296 297 297 297 298 299 298 297 298 298 299 299 298
293 293 292 291 292 292 293 293 293 294 294 294 293 294 295 295 295 294 294 294 294 294 294 295 294 294 294 294 293 293 294 294 294 294 294 295 295 295 296 296 296 297 300 300 298 298 299 299 299 300 298 297 298 298 296 297 298 297 296 296 296 296 296 295 295 295 295 295 295 295 295 296 296 296 297 298 297 296 297 298 297 295 296 297 297 297 298
292 291 290 290 292 292 292 293 294 294 294 293 293 294 295 295 295 295 294 294 293 293 294 294 294 295 294 294 294 294 294 296 297 296 295 295 295 295 296 299 298 297 298 298 298 299 299 298 298 298 297 297 298 298 297 297 297 296 295 295 295 294 294 294 294 295 295 295 295 295 295 296 296 296 296 296 296 296 297 297 296 296 297 298 298 299 299
292 290 288 290 291 292 293 294 295 295 293 293 294 295 295 294 295 295 295 294 293 293 294 294 294 294 294 294 296 296 294 295 298 297 296 296 294 293 296 300 299 297 296 298 299 299 297 297 298 298 297 295 296 297 298 297 296 295 295 295 294 294 294 294 294 295 296 295 295 296 295 295 295 295 296 297 297 297 296 296 296 298 299 299 300 300 299
290 288 288 290 291 293 295 295 295 295 294 293 294 294 293 294 295 295 295 294 293 293 295 294 293 293 293 295 298 297 294 294 297 297 296 295 294 293 294 296 297 296 296 297 297 298 297 297 297 297 296 295 296 297 298 296 295 294 294 294 294 294 295 296 296 296 296 296 296 296 295 295 296 297 297 298 298 297 297 298 298 299 300 300 299 299 299
289 288 289 291 293 295 296 295 294 295 294 293 293 293 293 295 295 294 294 293 292 294 296 295 293 293 294 296 298 296 294 296 297 297 296 295 295 297 296 294 295 296 295 294 296 297 297 296 296 295 295 296 296 298 297 294 294 295 294 294 294 294 295 296 296 295 295 296 296 296 296 296 297 297 297 297 297 296 297 298 298 298 298 299 299 299 300
289 289 291 293 295 296 296 294 293 293 292 292 293 294 294 295 295 294 294 294 293 294 294 294 295 294 294 295 297 296 295 296 295 296 298 297 295 296 296 294 295 297 295 295 298 297 294 294 294 294 296 296 295 296 296 295 295 295 294 294 295 295 295 295 295 295 296 297 297 297 296 296 297 297 296 296 296 296 296 297 297 297 297 298 298 299 299
289 290 291 292 295 296 295 294 293 292 293 293 294 294 295 295 295 295 294 294 295 295 293 293 295 294 292 294 296 295 295 296 294 294 298 298 294 294 296 296 297 297 293 294 297 295 293 295 296 295 297 298 296 295 296 296 294 294 294 294 295 295 294 295 295 295 296 297 297 296 296 296 296 296 295 295 295 295 296 296 297 297 296 296 296 297 298
290 291 291 292 294 295 294 293 292 293 293 294 294 294 295 294 294 295 295 293 294 295 294 293 294 293 292 296 297 294 294 295 294 295 296 296 294 295 296 296 296 294 292 293 296 294 294 297 298 296 297 299 298 297 297 295 293 293 294 294 295 295 294 294 295 295 295 295 295 295 295 295 295 295 295 295 295 295 296 297 298 297 296 296 296 297 297
290 291 290 291 292 293 292 292 293 294 294 294 294 294 294 294 295 296 295 293 294 294 294 294 293 292 292 295 297 296 293 292 293 295 296 295 294 294 293 293 294 293 292 294 296 295 294 296 296 295 297 299 298 296 295 293 293 293 294 295 295 295 294 294 294 295 295 295 294 294 294 294 294 294 295 295 296 297 298 298 297 296 296 295 296 296 295
291 290 290 291 291 291 292 293 293 294 294 293 293 294 294 295 296 295 294 294 295 295 295 294 294 294 293 293 295 296 295 292 293 294 294 295 296 294 292 293 294 293 292 295 297 296 295 295 294 295 297 298 296 294 293 293 293 294 295 295 295 294 294 295 294 294 294 294 294 294 294 294 294 294 295 296 296 296 296 296 295 295 295 294 294 294 294
291 291 291 291 291 291 292 293 294 294 294 294 294 294 294 294 294 293 293 294 295 294 295 294 294 295 295 294 294 295 294 292 294 294 293 295 297 295 293 294 294 293 294 297 296 295 295 295 295 297 298 297 294 293 293 293 294 294 294 294 294 294 294 295 294 294 294 293 293 293 293 293 294 294 295 296 295 294 294 294 294 294 294 293 293 293 292
291 292 292 292 292 293 293 293 293 294 295 294 294 293 293 294 294 294 294 295 295 295 296 295 294 294 294 293 294 295 293 292 294 295 294 294 295 295 293 293 293 293 296 297 296 295 296 297 297 298 298 295 293 293 293 293 294 294 294 294 294 294 295 294 294 294 294 293 293 293 293 293 293 293 294 294 294 293 294 294 294 294 293 293 292 292 292
292 292 291 291 292 293 293 292 293 293 293 294 293 293 293 294 294 294 294 296 297 297 296 294 293 294 295 294 294 295 294 294 294 294 293 293 294 293 293 294 295 295 294 295 296 296 295 296 298 297 295 293 293 293 293 293 294 294 294 294 294 294 294 294 294 293 293 293 293 293 292 292 293 293 293 293 293 294 294 294 294 294 293 293 292 292 291
292 293 292 292 293 293 291 292 292 292 293 294 295 294 293 293 293 293 294 296 296 294 295 296 295 295 296 295 293 293 295 295 293 292 293 293 293 293 293 295 297 295 293 294 296 296 295 296 298 296 293 292 293 293 293 293 293 293 294 295 295 294 294 294 294 293 293 293 292 292 292 292 292 292 292 293 293 294 294 294 294 293 293 292 291 290 289
292 292 291 292 293 293 291 291 293 293 293 293 293 292 291 292 292 292 293 294 294 294 296 297 296 294 295 295 293 294 296 294 292 293 293 292 292 294 294 294 294 295 295 296 297 296 295 296 297 294 292 292 292 292 292 293 293 294 295 295 295 295 294 294 294 294 293 293 292 292 292 292 292 292 292 292 293 293 293 293 293 292 292 291 290 290 289
292 291 290 291 293 293 291 292 294 293 292 292 292 291 291 291 292 291 291 292 295 297 297 296 295 294 294 293 292 294 297 295 292 293 294 291 291 295 295 293 293 296 296 296 297 297 297 296 295 294 293 292 292 292 293 293 293 294 295 295 295 295 295 294 294 294 293 293 293 292 292 292 292 292 292 292 292 292 293 293 292 292 291 291 290 290 289
292 291 291 292 294 293 293 293 293 292 291 291 291 291 290 290 291 292 291 292 294 296 296 295 294 295 296 294 292 294 296 294 292 293 294 292 291 293 294 294 295 296 295 295 297 298 297 295 294 293 292 292 292 293 293 293 293 294 295 295 295 295 294 294 294 294 293 293 293 292 292 292 292 293 292 292 292 292 292 292 292 292 292 291 291 290 290
292 291 291 291 292 292 293 292 291 291 291 291 291 290 290 291 291 291 291 292 294 295 295 294 293 293 294 294 293 293 293 292 291 291 292 292 291 292 293 294 295 295 295 296 297 297 296 295 293 291 291 292 293 293 293 293 294 294 294 294 294 294 293 294 294 293 293 293 293 292 292 292 292 293 293 292 292 292 292 292 291 291 291 291 291 290 290
291 291 291 291 292 293 292 291 291 292 292 291 291 291 291 291 291 291 290 291 295 297 295 293 292 293 293 293 292 292 293 292 291 291 291 291 292 292 292 293 294 295 296 296 296 295 295 293 291 291 291 292 292 292 293 293 293 293 292 292 293 293 293 293 293 293 293 293 293 293 292 292 292 293 293 292 292 291 291 291 290 290 290 290 290 290 289
291 290 291 291 292 292 292 291 291 292 291 290 290 290 290 290 291 291 291 291 293 294 294 294 293 293 293 293 292 292 292 291 291 290 290 291 293 293 293 294 295 297 297 296 294 294 293 292 291 292 292 292 292 292 293 292 292 292 292 292 293 293 293 293 292 292 292 292 293 293 292 292 292 292 292 291 291 291 290 289 289 289 289 290 290 290 289
291 291 292 292 291 291 290 290 290 291 290 290 290 290 290 291 291 291 290 290 290 292 294 295 294 293 293 293 293 292 291 291 291 291 290 291 293 294 295 296 296 295 295 295 294 293 293 293 293 292 292 292 292 292 292 291 291 292 292 292 293 294 293 293 293 292 292 292 292 292 292 292 292 292 292 291 291 290 289 289 289 289 289 289 289 289 288
Wind_Speed
31 31 33 33 33 33 32 32 31 32 32 28 24 15 3 2 2 5 10 16 8 5 3 4 3 1 2 2 3 3 2 1 3 3 3 3 2 2 1 1 1 1 1 1 2 2 1 3 2 2 2 1 1 5 9 7 4 3 2 3 2 1 3 2 2 3 4 8 6 2 1 4 6 2 2 4 3 3 5 5 2 1 2 1 2 1 5
31 31 32 33 34 33 31 31 30 28 29 27 20 8 0 1 4 4 10 16 6 4 0 2 1 3 4 3 3 3 2 1 2 2 2 2 1 1 1 1 1 1 1 2 2 2 1 2 2 1 1 1 2 8 11 8 5 3 1 2 1 2 0 1 1 4 5 7 6 5 5 3 3 0 2 2 2 4 2 1 2 1 3 4 4 3 5
31 31 32 33 33 33 31 31 29 26 25 25 16 3 1 2 2 3 9 15 9 4 3 3 2 3 3 3 4 3 2 2 2 3 3 2 2 1 2 1 2 2 2 2 1 1 2 1 2 1 1 2 2 8 10 7 5 2 0 2 1 1 1 2 2 2 3 2 3 3 3 1 1 0 1 1 2 2 0 1 3 1 3 3 4 4 4
31 31 32 33 33 33 32 30 30 26 24 24 14 3 1 2 2 3 6 9 8 2 1 4 2 1 2 3 3 1 2 4 4 3 1 3 1 2 3 3 3 4 4 3 3 3 2 2 2 2 3 3 2 5 7 6 7 7 8 7 2 3 1 2 5 5 6 5 6 5 3 1 3 2 2 2 2 1 3 3 2 3 3 2 4 5 4
31 32 32 32 32 33 32 31 30 26 24 23 12 3 3 2 0 2 2 4 4 3 4 5 3 1 0 1 3 2 2 3 4 2 1 2 3 3 3 5 4 2 3 3 1 3 3 3 2 1 2 3 3 6 4 4 9 10 9 7 3 4 2 2 5 5 7 7 7 5 2 2 5 4 3 5 5 3 5 4 5 4 3 5 6 5 5
30 32 32 32 32 33 33 31 30 26 24 21 10 2 3 2 1 1 1 2 1 2 4 4 3 3 2 2 2 3 4 3 3 3 2 3 4 2 2 5 4 2 2 3 1 2 3 3 1 0 2 2 4 6 3 2 7 9 6 5 4 4 2 3 3 4 5 5 6 5 3 3 5 5 6 6 6 5 6 7 6 6 5 8 7 6 7
30 31 32 32 32 32 33 32 31 27 21 17 12 5 2 2 1 2 2 0 2 2 3 3 2 4 2 2 3 3 5 5 3 3 3 3 4 3 2 2 2 1 2 4 2 0 0 2 2 1 1 2 2 3 3 2 5 7 5 4 2 3 2 3 1 3 5 5 5 4 4 4 4 5 7 6 6 8 8 7 6 7 8 9 6 7 9
29 29 30 32 31 31 32 32 32 29 21 16 14 8 4 2 1 3 3 2 2 2 2 1 2 3 3 2 3 2 4 6 5 4 2 1 3 3 2 3 2 1 3 5 3 4 5 3 3 2 1 2 1 1 2 3 3 5 3 3 3 2 2 2 2 3 6 6 5 4 3 4 5 7 6 5 6 7 7 4 3 5 7 8 7 7 9
28 28 29 30 30 30 31 32 32 30 23 16 10 7 7 3 3 2 2 2 3 2 2 2 3 3 3 2 3 3 3 5 5 4 2 2 1 1 3 4 2 2 3 4 3 6 6 7 6 5 5 3 3 3 3 2 3 4 1 1 2 2 1 2 4 3 6 4 5 6 4 2 6 7 5 7 7 6 5 4 5 6 6 7 6 5 6
27 27 28 28 29 29 29 30 32 29 25 19 8 6 12 8 3 3 3 1 3 3 2 3 3 1 2 3 3 3 4 6 4 2 2 2 1 3 5 4 1 2 2 0 5 8 7 7 8 6 5 5 4 3 3 2 1 1 1 1 1 2 1 0 1 2 6 4 3 5 5 5 7 7 8 10 10 7 5 3 5 7 6 4 5 5 6
25 26 27 27 27 28 28 28 30 28 27 22 10 6 13 9 3 3 4 0 3 3 2 3 3 1 3 5 4 3 4 6 5 1 1 2 3 1 3 5 2 1 2 3 4 6 6 5 4 4 4 3 3 3 3 3 4 4 4 2 2 4 4 3 3 3 5 4 2 4 4 6 8 5 8 11 10 9 7 6 7 7 5 3 4 5 4
24 25 25 26 25 26 26 26 28 27 25 21 14 12 17 12 3 1 4 1 3 3 2 1 1 1 4 5 4 3 4 5 4 2 2 3 4 4 4 5 3 1 4 7 6 2 2 1 1 1 1 2 4 5 4 5 6 5 5 4 3 3 4 3 2 3 4 2 2 2 7 8 5 2 4 7 7 8 7 5 5 6 5 4 5 5 4
23 24 24 24 24 24 25 25 26 26 23 19 17 18 20 15 5 1 4 2 2 2 1 2 3 3 5 5 4 5 4 5 5 3 2 2 3 4 4 4 1 5 8 7 5 3 1 1 2 1 2 4 5 4 4 4 6 5 3 5 5 5 3 2 2 2 1 1 3 5 6 5 5 5 3 2 1 3 1 5 6 3 4 5 5 4 4
22 23 23 23 23 23 23 23 24 25 23 18 17 19 21 19 10 2 2 3 1 3 1 2 4 5 5 5 4 4 5 6 6 4 2 1 2 3 3 2 5 9 8 3 3 4 1 1 3 3 3 5 5 3 3 3 4 5 5 4 6 5 3 2 2 3 2 3 4 3 4 7 6 4 3 1 2 1 2 3 4 4 3 4 3 3 4
21 22 22 22 22 21 22 22 22 23 22 17 15 18 22 21 13 4 0 3 0 2 1 1 2 5 6 5 3 3 4 5 4 4 3 2 2 3 2 6 12 12 4 1 1 2 1 0 1 2 2 2 2 3 3 3 3 4 4 4 3 4 5 4 3 2 2 2 3 3 3 5 5 3 4 4 4 5 3 2 2 4 4 3 3 3 5
21 21 21 21 21 21 20 20 21 22 22 18 14 16 21 22 17 9 2 2 2 1 1 1 3 3 3 4 3 3 2 2 2 3 4 4 4 4 4 8 12 10 4 3 2 3 3 1 2 1 2 2 1 2 2 2 3 3 3 5 5 2 1 4 3 1 1 3 4 3 3 5 5 5 7 6 5 5 0 3 1 5 4 3 3 5 6
20 20 20 20 20 20 19 19 20 20 21 21 16 14 18 20 19 13 4 2 2 2 2 2 2 1 1 2 3 3 2 2 2 1 2 3 4 5 6 7 8 6 4 3 2 2 2 1 2 1 2 3 2 2 2 1 2 4 5 6 5 5 3 3 3 3 2 3 3 3 2 3 4 5 6 6 4 2 4 2 4 5 5 4 4 5 6
19 19 19 19 19 19 18 17 18 18 20 22 17 13 15 18 18 14 5 1 2 2 3 3 4 0 2 1 3 2 2 2 2 1 2 2 2 3 5 5 4 5 4 3 2 2 2 1 1 2 2 3 1 2 2 1 1 3 4 3 3 3 2 1 2 3 3 3 3 3 2 2 3 5 6 6 3 5 4 3 5 4 5 5 4 5 6
19 19 19 19 19 19 17 16 17 17 18 21 19 14 13 16 18 16 8 1 1 2 5 6 3 2 1 2 2 2 3 2 0 1 2 2 2 4 4 2 2 3 3 3 2 1 2 1 1 2 1 3 1 0 2 1 1 2 2 2 2 2 2 2 0 1 2 3 2 2 3 3 4 4 4 3 3 2 2 4 4 4 6 5 4 6 6
19 19 20 19 19 18 17 16 16 17 17 19 20 16 13 14 16 17 10 2 1 3 7 5 2 2 1 2 2 2 3 2 1 1 0 2 3 4 4 2 2 3 3 3 2 2 1 1 3 1 1 1 1 1 2 2 2 2 0 1 1 1 1 2 2 1 1 1 0 1 2 3 4 2 3 3 1 2 4 4 3 4 5 5 5 5 5
19 19 19 19 18 17 17 15 15 16 16 16 18 17 15 14 15 15 12 6 1 1 3 2 2 6 8 8 8 7 5 4 5 3 2 3 3 3 2 2 2 1 1 1 2 1 0 0 1 2 1 1 2 1 1 2 4 4 1 0 1 1 1 1 2 1 0 0 2 3 3 3 3 3 0 2 4 4 3 2 3 5 5 4 4 5 5
19 19 19 19 18 17 17 16 15 16 16 16 17 16 16 18 17 15 14 8 3 5 8 10 12 15 13 8 7 8 9 9 9 7 5 2 3 0 2 2 2 2 1 2 2 1 1 0 0 0 0 1 1 1 1 0 3 4 2 0 2 3 3 3 3 3 2 4 5 5 3 3 2 3 2 5 6 4 4 5 4 4 4 4 4 5 7
19 19 18 18 18 17 16 16 16 16 16 15 16 16 16 19 18 16 13 7 4 7 10 11 12 11 6 3 8 11 8 5 7 6 6 4 2 1 3 3 2 1 0 2 3 2 2 2 1 1 1 2 1 0 2 2 2 3 2 1 3 4 2 2 2 3 3 3 4 4 3 4 4 3 4 6 6 5 4 4 5 5 5 5 4 6 7
20 19 19 18 18 17 17 16 16 16 16 15 15 16 17 16 16 15 11 5 3 4 3 3 3 0 1 9 18 14 5 4 8 9 5 6 4 1 2 3 2 1 2 3 3 3 2 1 1 1 1 2 2 2 2 3 3 3 2 2 4 3 1 1 1 3 4 3 4 4 4 6 6 6 6 6 7 6 5 4 6 6 6 6 6 7 8
20 19 19 18 18 17 17 17 16 16 17 16 15 16 17 17 15 12 7 2 2 1 1 3 2 3 4 17 18 9 7 11 13 12 8 7 10 7 5 4 3 2 3 4 3 4 2 1 1 1 2 2 2 2 2 3 3 1 1 2 4 2 1 2 3 4 3 4 6 8 9 9 8 6 6 5 6 8 7 6 7 7 7 7 7 7 7
20 20 19 18 18 18 17 17 17 17 16 16 16 17 18 16 12 6 2 2 2 0 1 3 4 6 14 19 14 10 13 16 14 12 11 8 8 10 10 7 4 2 1 3 3 3 3 1 1 2 2 2 3 2 2 3 2 1 3 5 4 2 2 3 3 3 4 6 8 8 8 8 7 6 6 6 6 8 8 8 7 7 8 8 9 9 8
20 20 19 18 18 18 18 17 16 15 15 16 17 16 13 9 4 0 1 1 1 1 2 2 4 11 17 14 12 15 17 15 15 15 14 11 7 7 10 8 3 1 3 3 1 2 3 1 1 3 3 2 2 2 3 3 1 1 5 5 2 2 4 4 2 3 5 6 8 6 4 6 8 7 7 8 8 8 8 9 8 8 8 9 9 10 9
20 20 20 19 19 18 17 14 13 13 14 16 16 11 6 5 3 1 1 0 2 2 1 3 5 11 13 12 15 20 18 16 17 16 14 13 9 5 10 8 4 3 3 3 1 2 2 2 2 2 2 2 1 1 2 0 1 2 6 4 3 4 5 4 3 5 7 9 11 7 4 7 10 9 8 8 7 7 8 9 9 10 10 8 8 9 9
21 20 20 20 19 17 15 14 13 12 13 15 13 7 6 7 7 4 3 3 0 2 1 2 5 6 6 10 18 20 19 19 19 15 13 13 9 2 8 8 5 3 3 3 3 2 2 3 3 2 2 2 2 1 1 1 1 4 7 6 5 6 7 7 7 8 9 10 11 8 6 9 11 10 10 9 7 7 9 10 10 9 9 9 8 9 9
22 21 22 21 19 16 14 13 13 11 10 12 11 5 3 4 6 7 8 8 5 3 1 1 3 3 4 8 12 15 19 22 20 16 14 12 10 6 4 6 4 2 3 2 2 2 2 2 2 2 2 2 3 1 1 2 2 5 7 7 7 7 7 7 7 8 9 10 9 8 9 11 11 10 10 9 8 8 8 9 9 9 9 10 8 7 8
23 23 23 22 18 15 14 13 13 10 8 7 5 2 1 1 1 2 5 8 8 5 1 0 2 4 5 4 5 10 17 18 14 13 12 9 8 6 2 3 3 2 3 1 1 2 2 2 2 2 2 1 3 2 2 2 2 5 6 5 5 5 6 6 7 7 9 10 10 10 11 10 9 9 10 9 9 9 7 7 9 11 12 12 11 10 12
25 25 24 21 17 14 13 13 12 9 6 6 4 2 3 4 4 5 6 9 9 5 1 1 2 2 3 4 6 10 13 11 7 7 7 5 4 5 3 1 0 1 2 2 1 1 2 2 2 2 1 2 4 2 2 3 4 6 6 5 5 5 6 7 8 8 8 8 7 9 12 10 7 8 9 8 8 8 7 7 11 14 14 13 14 15 15
27 27 25 21 17 13 12 12 12 9 7 6 5 4 5 6 6 6 6 6 5 2 1 1 2 2 2 4 6 7 7 5 4 4 4 3 2 3 3 3 2 1 1 2 2 2 1 2 1 2 2 1 3 2 2 4 5 6 7 7 7 7 8 9 9 9 8 7 6 8 11 11 9 9 9 8 8 9 8 8 10 12 11 9 10 11 10
28 28 25 20 15 11 11 11 9 7 5 3 2 5 9 10 9 6 3 2 1 2 1 2 1 2 3 3 4 4 4 4 2 2 2 4 3 2 2 3 3 2 1 1 1 1 1 1 2 1 2 1 1 1 2 4 5 7 8 8 8 8 9 10 9 8 8 8 7 8 10 10 10 10 10 9 8 8 7 7 7 8 7 6 8 8 5
29 27 23 17 11 6 5 4 1 3 4 1 4 8 12 12 8 4 2 3 1 2 1 1 1 1 2 3 3 4 4 3 2 2 1 3 3 1 1 1 3 2 2 1 1 0 1 2 2 1 1 1 1 2 3 5 8 9 9 9 10 9 9 10 10 9 9 8 8 10 10 10 10 10 9 7 6 5 5 6 6 5 5 6 7 5 3
28 24 19 11 3 3 5 6 5 5 4 5 11 14 13 9 4 2 4 4 2 1 1 1 1 1 1 1 3 4 4 4 2 2 1 2 3 2 2 2 2 3 1 1 1 2 2 2 2 1 2 1 2 4 4 4 8 11 11 10 11 9 9 11 12 13 13 12 12 11 10 8 7 6 5 4 4 4 5 7 6 6 6 7 6 4 3
26 21 13 5 3 4 3 4 4 5 10 14 13 10 6 3 2 2 1 1 1 2 2 1 1 2 2 2 3 3 3 2 2 2 2 2 3 2 2 1 2 2 2 3 2 3 1 0 1 1 3 3 4 5 5 4 8 10 10 11 11 9 7 9 10 11 12 11 10 8 5 4 4 3 3 5 6 5 6 7 7 6 6 7 5 3 3
23 16 10 5 3 2 2 1 5 13 17 13 5 2 2 1 2 1 1 1 0 1 1 1 2 2 1 2 2 2 2 2 2 2 2 2 2 2 2 1 1 1 2 3 4 2 1 2 1 1 3 4 3 4 5 5 7 8 8 9 9 7 6 6 7 9 8 6 5 5 4 5 5 5 5 6 7 6 6 7 5 3 4 5 3 2 4
20 16 11 8 3 0 2 7 15 17 11 2 2 2 1 1 1 0 0 1 1 1 1 1 3 2 3 3 4 4 3 0 3 3 2 2 2 1 1 1 1 1 2 3 3 1 2 2 2 1 2 4 3 4 5 7 7 7 8 8 7 6 5 4 5 7 7 5 5 6 5 5 7 7 6 6 6 7 6 5 1 3 3 3 4 7 8
18 13 8 4 3 6 12 17 16 9 2 2 1 1 1 1 0 1 1 0 0 1 2 2 2 2 4 4 4 4 3 3 1 2 2 2 2 1 0 1 2 0 1 3 3 1 1 2 2 2 2 4 4 5 6 7 8 8 7 7 7 6 5 4 5 7 7 6 7 7 6 7 7 7 6 6 7 6 3 2 6 8 9 10 12 13 13
14 9 6 6 11 18 21 17 8 2 2 1 1 1 1 1 2 1 1 0 2 2 2 2 1 2 3 4 3 3 4 4 2 1 1 2 2 0 1 2 2 1 0 4 3 1 2 0 1 2 3 5 5 6 7 8 8 8 8 7 7 6 5 4 6 8 8 7 6 6 7 7 7 7 7 6 4 2 3 6 9 12 14 16 16 17 18
18 16 14 16 19 19 14 7 2 1 1 1 1 0 1 1 1 1 1 1 2 2 1 2 2 3 3 3 4 3 3 2 1 2 1 2 3 0 1 1 1 2 2 4 1 3 2 1 2 3 4 5 6 7 8 8 9 9 9 8 6 5 4 4 5 7 7 7 6 6 6 6 6 6 4 3 7 8 8 9 11 15 18 20 21 22 22
20 15 10 9 8 6 3 1 1 1 1 1 1 1 2 1 1 1 2 2 1 1 1 2 1 2 2 1 2 2 2 0 1 1 1 2 2 1 2 2 1 1 3 2 2 2 1 2 3 4 5 6 7 7 8 9 9 8 7 6 4 4 4 4 5 6 7 8 7 7 6 6 6 8 10 12 14 13 13 15 18 19 21 22 24 23 22
15 7 1 1 1 1 0 1 1 1 1 0 1 1 1 2 2 2 2 2 2 2 2 1 1 1 2 2 1 1 1 1 1 1 0 1 1 2 1 1 2 3 2 2 2 1 2 3 4 4 5 6 7 8 9 9 8 7 5 4 4 5 5 5 5 6 7 8 8 8 8 7 9 12 14 14 15 14 14 16 20 21 21 22 21 21 21
9 3 2 3 2 1 0 1 1 0 1 1 1 2 1 2 3 3 3 3 2 2 1 1 2 1 3 3 1 1 1 1 1 0 1 1 1 1 1 3 2 1 1 2 1 2 3 3 4 5 6 8 8 9 10 9 7 5 3 2 3 4 4 4 5 5 6 7 8 9 9 8 10 13 14 16 18 18 17 17 19 20 20 21 20 20 21
2 0 2 2 2 1 0 0 1 1 1 1 2 1 1 3 4 4 3 2 2 2 2 2 2 3 3 2 1 1 1 1 1 1 0 2 1 2 3 1 1 2 2 2 2 2 4 5 4 5 7 8 8 9 9 8 6 4 2 2 2 2 3 4 5 5 6 8 10 10 10 10 12 14 17 19 20 21 20 20 20 21 21 20 19 19 20
1 1 2 2 1 2 1 1 2 2 2 2 2 3 3 4 4 4 4 3 3 3 2 1 1 1 2 1 1 2 1 1 0 2 0 2 0 2 1 2 1 0 0 1 3 4 4 4 5 6 6 7 7 8 8 7 6 5 4 3 2 2 3 4 5 6 8 10 12 12 12 13 14 16 18 20 20 21 21 21 21 22 22 21 20 20 22
1 1 1 1 1 2 2 2 2 2 2 2 2 3 3 3 3 4 4 3 2 2 2 1 1 1 2 1 0 1 2 1 0 2 1 1 0 1 2 2 2 2 1 3 4 5 4 4 5 6 6 6 6 6 6 5 5 5 5 4 3 3 3 3 4 6 8 10 12 13 13 14 14 16 18 19 18 18 19 20 20 20 21 21 20 21 21
1 1 1 1 1 2 3 2 2 3 3 3 3 3 3 3 4 6 5 3 1 2 2 1 1 0 2 2 0 0 1 1 0 1 1 2 1 1 0 0 2 3 3 3 4 4 5 5 5 5 5 5 6 6 5 4 5 5 5 5 4 3 3 3 4 6 8 10 12 14 14 14 14 16 18 18 16 14 16 18 19 19 19 20 21 20 19
2 1 2 2 2 3 2 2 2 4 4 4 3 4 3 3 5 5 5 3 2 1 1 1 1 1 1 1 1 1 2 2 1 1 1 1 1 1 1 1 3 4 4 4 4 4 5 5 4 4 4 5 5 5 4 4 4 5 6 8 6 4 3 2 3 6 8 9 10 12 14 14 14 14 15 15 15 15 17 18 18 19 19 21 22 22 21
2 2 2 3 3 3 2 1 2 4 5 5 5 4 3 3 4 5 4 4 3 3 2 1 1 1 2 1 0 1 2 1 0 1 1 2 2 2 1 3 5 5 4 4 5 5 5 4 3 2 3 4 5 5 5 5 5 6 8 8 5 2 2 3 4 5 6 8 10 12 13 12 13 14 16 17 19 19 18 17 17 19 21 21 22 22 20
2 2 2 3 3 4 3 3 3 4 4 4 5 4 2 3 6 6 5 4 3 3 3 2 2 2 1 1 2 1 0 1 1 1 2 2 2 3 4 5 5 5 4 5 5 5 4 4 3 3 3 4 4 5 6 6 6 7 7 5 0 3 3 3 5 5 6 8 11 13 14 14 14 16 18 18 17 15 13 12 14 18 20 20 20 20 19
Wind_Direction
11 11 12 13 13 14 12 12 10 4 1 1 1 357 8 83 283 282 353 352 348 66 51 320 9 44 263 278 275 290 310 318 329 335 357 2 347 16 28 213 192 187 191 166 137 107 197 236 217 223 251 94 84 331 352 6 22 59 27 306 302 85 80 71 293 292 306 304 313 351 24 89 91 47 51 90 100 115 152 180 182 203 228 146 123 239 265
10 10 10 11 12 12 12 11 11 9 5 360 358 1 138 260 263 272 0 1 16 109 138 305 343 303 309 339 315 304 296 334 359 336 314 311 287 3 319 243 208 176 116 111 163 167 157 237 244 233 236 199 57 8 357 3 26 35 233 236 289 316 309 105 356 331 335 335 346 351 344 48 103 357 25 84 87 80 92 103 89 232 232 160 160 231 241
10 9 9 10 11 11 11 10 9 9 6 359 357 350 259 334 290 269 353 12 39 119 166 138 171 286 332 332 306 305 306 313 314 275 279 278 203 198 288 251 109 47 43 61 23 123 122 242 273 8 322 257 32 11 352 359 16 343 228 133 150 232 215 147 149 238 247 279 289 271 284 324 77 122 99 32 26 66 352 47 90 251 259 164 165 219 257
10 9 8 8 9 10 10 9 7 7 5 359 355 351 359 15 355 310 334 10 39 78 74 80 102 322 6 327 294 255 285 302 288 260 303 337 4 74 348 352 60 40 33 50 16 7 30 359 6 29 329 293 337 346 341 6 11 6 24 30 69 118 71 169 156 180 203 211 232 230 197 226 273 256 197 230 262 134 110 106 158 203 222 244 213 195 244
10 9 8 7 9 9 9 9 7 7 5 359 353 14 48 57 59 13 341 339 15 24 12 40 49 314 253 292 293 279 291 316 313 317 47 356 13 73 30 16 48 30 29 73 34 341 345 3 47 52 294 275 293 316 329 18 14 18 21 6 40 85 346 259 167 197 218 210 230 253 248 227 242 245 219 211 217 163 125 171 217 179 169 267 251 188 212
11 10 9 8 8 8 9 9 8 10 7 360 2 47 32 45 136 61 28 297 321 14 346 355 355 315 247 214 322 327 332 333 303 309 353 11 19 63 29 17 33 14 40 102 146 335 353 360 17 249 303 311 322 335 342 13 17 25 16 354 57 101 280 264 202 251 259 232 238 259 264 242 229 222 213 209 213 200 189 213 209 163 185 249 242 196 219
12 11 10 10 8 8 9 8 9 13 11 12 39 57 347 38 62 325 12 48 217 242 307 318 351 348 332 340 5 9 350 336 289 289 351 2 3 57 102 331 346 34 81 113 135 220 352 331 304 257 350 1 352 350 334 319 18 34 20 350 53 122 263 275 241 304 305 281 265 259 249 252 253 244 228 213 214 213 212 224 207 186 219 248 241 230 242
12 12 11 11 11 9 9 10 11 14 15 28 54 53 5 42 11 322 15 13 283 265 320 10 76 15 5 355 348 9 8 351 316 310 10 5 330 32 108 248 263 114 93 105 140 200 183 183 242 201 100 350 281 235 270 277 353 24 27 335 4 57 282 295 51 4 302 293 308 309 263 235 245 256 239 203 211 228 233 235 201 199 241 255 257 262 265
12 13 12 12 13 12 11 12 14 17 23 38 58 40 8 352 282 332 59 345 330 336 332 27 81 27 5 1 330 343 350 342 319 306 340 127 162 133 188 239 296 42 65 95 192 220 180 173 209 193 167 203 217 205 213 221 341 356 23 314 354 40 295 340 41 346 278 289 317 310 318 301 253 246 214 193 207 221 222 211 191 192 219 247 269 276 265
12 12 13 13 14 14 13 14 16 20 31 43 56 14 4 359 322 16 71 262 341 12 345 16 65 64 351 341 324 318 304 316 334 327 331 50 106 195 188 175 68 14 10 341 224 218 190 193 218 203 183 203 206 213 233 212 217 240 193 235 226 154 178 302 74 268 270 280 293 305 350 334 272 240 194 196 212 220 226 248 227 200 184 202 235 237 234
12 12 13 13 14 14 15 16 16 21 31 38 45 19 8 3 309 356 50 173 317 357 20 21 46 48 352 343 326 304 307 329 357 46 282 334 349 330 143 124 98 212 245 272 253 216 198 204 206 176 173 206 220 233 252 246 228 207 185 221 228 167 171 198 176 215 263 283 340 350 323 270 255 230 184 191 204 207 212 230 226 210 192 190 220 236 236
12 12 12 13 13 14 15 16 16 21 28 32 40 33 17 9 316 351 67 116 287 344 40 19 47 339 321 327 318 293 302 321 320 283 246 287 333 360 52 73 53 320 287 301 311 295 223 219 60 114 169 302 277 262 257 259 263 245 204 206 234 201 189 206 181 194 246 289 49 295 260 251 261 282 208 197 187 174 188 235 246 226 223 233 245 247 224
11 12 12 12 13 14 15 16 16 17 22 29 37 35 24 21 27 75 86 101 277 321 17 306 323 327 309 322 331 308 306 311 304 297 270 277 331 3 21 49 21 295 298 310 348 29 326 324 9 323 311 344 325 286 264 262 275 281 245 208 214 213 202 198 183 194 227 126 152 206 248 283 300 300 285 242 181 128 163 290 300 276 215 219 237 250 240
10 10 11 11 12 13 13 15 15 14 15 24 35 35 29 29 31 11 78 86 270 271 283 328 333 334 320 326 340 328 333 344 338 334 325 297 349 4 3 351 304 293 291 310 29 43 40 358 22 358 331 357 0 315 288 289 291 301 296 253 210 193 177 170 209 215 181 178 209 242 311 314 299 298 323 313 272 270 240 253 282 288 242 197 190 240 256
8 8 9 10 10 12 11 12 13 12 12 18 33 38 31 27 25 6 101 109 160 296 17 63 291 308 308 306 344 10 353 350 347 330 321 327 347 341 327 319 316 314 314 99 52 50 74 126 46 8 328 349 345 297 300 318 296 279 289 291 237 190 183 174 193 221 156 182 256 294 301 279 267 273 288 275 253 258 239 162 222 273 260 205 181 241 251
6 6 7 8 8 9 10 10 10 10 11 14 27 37 30 25 24 19 14 119 110 282 257 211 240 258 280 293 339 23 348 315 333 333 333 339 328 312 309 314 321 332 18 62 67 86 86 137 162 159 213 198 210 270 287 309 298 297 337 356 2 355 172 143 155 218 134 166 228 240 224 242 249 261 276 286 282 273 253 99 217 265 270 238 218 250 255
4 4 5 5 6 7 8 9 9 8 8 10 15 28 30 26 23 17 12 105 70 266 230 55 12 329 35 353 325 340 321 301 342 17 316 313 310 313 321 323 331 353 32 42 35 76 99 138 141 145 233 212 168 227 268 284 297 310 335 356 8 9 21 90 154 223 210 171 221 242 225 243 259 264 273 286 301 13 64 61 261 267 280 263 230 251 260
1 2 2 3 4 3 4 6 7 6 6 5 8 22 30 28 24 22 21 62 27 270 250 19 20 31 83 52 261 281 332 328 348 354 305 309 316 311 316 325 340 350 11 44 47 58 87 145 173 161 235 261 182 198 259 265 233 281 317 350 5 360 351 76 162 210 218 205 238 266 257 253 275 283 285 292 337 57 89 212 239 254 273 267 244 254 261
359 360 360 0 0 0 2 3 4 6 5 3 3 10 23 24 24 25 23 14 38 289 285 317 320 211 43 4 276 286 336 329 348 356 340 334 315 306 311 324 345 346 6 40 50 67 81 309 281 133 169 295 331 160 272 284 228 270 334 356 346 343 333 329 41 199 213 193 213 273 283 255 248 264 297 328 21 75 200 238 250 264 276 283 274 263 263
358 357 357 358 357 359 360 360 2 4 3 3 0 359 6 15 18 21 19 355 291 295 287 287 248 199 346 349 262 272 338 359 17 18 202 245 290 349 16 349 330 355 13 31 30 32 60 320 316 27 96 298 351 20 307 302 288 272 53 24 284 237 301 300 266 226 276 33 90 278 268 238 221 236 350 6 90 213 258 282 290 279 283 297 291 271 257
355 354 354 355 355 357 357 356 358 358 358 1 359 353 353 358 4 9 3 344 259 245 282 273 273 295 298 283 260 253 250 248 261 267 223 245 297 20 66 250 263 3 12 62 66 11 4 188 309 339 359 336 342 335 328 341 312 288 246 59 287 226 178 262 262 226 131 169 227 221 214 216 196 161 131 263 237 234 238 247 280 290 284 268 263 269 261
351 351 352 352 352 353 353 353 354 353 352 353 353 350 346 346 352 358 351 333 239 230 269 277 284 294 297 286 281 283 272 268 277 267 231 254 320 91 182 246 249 197 188 103 90 327 317 107 192 344 334 299 305 306 318 356 294 292 306 329 247 224 192 200 234 244 216 209 229 241 250 255 225 178 215 258 264 254 210 199 235 271 260 226 227 265 274
349 349 349 349 349 349 349 349 348 347 347 348 348 346 339 337 343 351 349 334 280 267 274 275 286 299 309 343 340 328 308 295 310 288 233 223 300 280 226 246 258 245 175 126 145 177 181 181 175 123 211 235 202 220 298 265 232 254 273 259 243 244 230 166 192 270 287 265 254 263 269 270 267 253 255 267 270 258 232 232 252 256 248 239 236 253 268
348 347 347 347 347 346 346 346 344 343 344 344 341 338 332 330 337 346 352 355 332 311 299 301 311 149 68 334 333 335 333 325 332 326 280 218 207 278 284 228 195 339 297 216 171 122 126 186 163 115 219 228 182 185 255 261 239 214 224 297 292 277 301 90 224 274 302 294 282 292 289 282 287 286 277 274 269 260 252 255 261 259 257 255 250 251 259
345 344 344 345 345 344 343 342 341 340 340 339 337 333 328 326 332 341 347 338 319 332 343 323 280 183 324 329 328 333 340 335 336 337 316 243 207 210 248 246 221 237 240 212 136 99 118 186 125 150 218 229 203 200 219 239 247 184 163 269 276 275 334 324 243 237 242 247 265 285 289 284 279 271 266 265 261 260 259 255 256 263 267 265 259 254 251
343 342 341 341 340 340 339 338 338 338 338 338 335 329 325 326 332 333 302 284 301 41 355 305 264 284 322 328 327 333 342 342 341 337 326 295 238 228 243 257 266 262 143 111 99 121 143 141 132 167 206 216 196 191 200 218 230 208 234 244 232 214 286 282 257 268 277 268 269 281 291 290 275 253 248 250 250 255 261 260 256 256 259 264 264 257 247
340 339 338 337 336 336 336 335 335 337 339 339 336 332 331 337 349 186 231 334 57 37 332 286 269 304 315 315 318 333 342 343 340 334 327 322 305 251 236 233 231 166 102 88 74 120 116 101 187 190 210 227 197 189 218 229 206 226 255 252 177 159 247 255 261 286 279 267 267 268 275 283 279 268 262 261 258 262 268 270 269 262 256 257 262 264 260
337 336 335 334 332 331 331 331 335 338 338 339 344 357 23 42 59 153 243 348 129 152 253 253 282 307 312 308 319 334 343 341 336 332 324 326 331 248 221 215 183 143 137 138 153 145 143 179 207 197 210 234 232 244 256 294 68 250 254 242 164 182 227 227 224 247 252 261 271 269 250 263 273 274 270 263 260 260 263 267 273 273 269 265 262 268 274
334 334 333 331 329 326 326 329 336 339 335 337 348 20 69 67 64 73 51 17 334 213 245 290 295 302 307 308 315 327 342 346 342 340 339 342 346 270 217 211 186 155 140 132 136 162 185 196 198 205 205 176 173 261 280 139 181 244 251 241 212 216 227 226 231 248 259 268 274 272 263 267 273 277 278 276 271 262 262 267 270 271 274 274 264 260 261
333 333 331 329 328 327 328 330 336 337 329 330 342 5 49 50 58 73 63 42 12 327 311 320 300 297 303 301 302 316 335 344 347 348 347 342 333 307 230 196 181 144 109 110 156 184 201 226 232 254 257 173 138 151 231 186 218 254 253 246 244 246 244 240 241 249 259 268 272 272 268 269 275 283 283 278 267 260 264 272 273 270 274 276 268 259 257
332 330 328 328 327 326 325 325 330 330 315 310 337 35 62 350 43 88 49 17 353 340 4 151 285 303 313 300 285 308 323 331 335 336 337 335 327 318 274 190 181 155 139 153 224 195 191 223 229 265 280 166 131 146 201 193 244 267 260 255 265 270 267 265 260 253 258 269 280 282 277 273 276 282 281 273 265 262 262 269 273 274 278 277 269 263 264
331 329 327 326 322 317 314 314 314 308 289 281 284 272 261 272 274 278 298 317 325 333 40 19 330 321 315 306 303 310 316 317 323 337 342 348 355 342 326 309 348 139 131 123 155 235 213 195 201 243 247 148 124 127 206 202 231 265 286 309 309 294 283 279 277 270 265 269 280 286 286 281 268 260 265 272 277 275 269 272 280 284 284 282 277 272 269
330 329 328 324 318 309 302 299 293 279 268 277 293 322 342 339 326 307 292 291 304 307 150 87 353 300 278 304 312 320 330 329 336 360 350 323 340 356 335 341 23 37 94 130 174 245 228 159 181 277 278 174 115 115 223 229 246 283 310 314 300 294 291 285 282 280 277 271 263 263 271 276 274 270 276 283 284 279 275 276 287 295 295 289 283 277 268
330 331 331 327 321 309 299 295 279 246 228 248 313 6 7 353 339 331 297 229 251 343 24 96 60 296 299 325 320 328 355 350 331 359 340 306 321 357 306 314 2 10 253 192 171 270 283 194 191 239 274 282 93 131 243 267 291 308 310 301 296 301 300 292 283 278 275 274 266 257 261 272 281 285 289 288 282 284 290 288 290 297 299 290 282 275 262
332 334 333 330 325 318 328 341 304 169 145 102 338 345 348 337 325 320 236 188 114 31 342 103 99 291 328 350 318 311 349 350 288 248 261 293 313 323 218 314 349 318 249 208 108 221 244 208 179 196 267 282 189 217 246 285 310 314 309 305 308 310 304 296 292 286 281 279 276 273 275 279 281 283 288 289 290 300 305 295 286 282 282 288 289 278 232
336 338 338 337 352 91 79 69 80 93 65 347 326 331 335 327 300 206 187 191 179 173 211 53 68 188 178 264 276 300 348 351 300 278 292 301 312 334 78 59 324 272 245 54 21 268 254 198 162 240 289 249 208 230 241 278 307 311 309 307 306 304 297 293 296 298 295 287 278 276 278 278 276 278 286 295 302 303 296 294 296 293 290 295 295 268 206
342 343 345 359 103 106 71 68 68 22 338 320 315 317 315 287 202 154 153 200 217 198 146 93 244 220 185 199 251 304 348 334 306 329 330 301 295 321 43 64 266 276 358 9 283 248 258 173 146 223 256 234 223 235 242 277 308 310 307 302 298 295 289 287 293 299 297 288 281 284 293 293 289 299 319 316 311 307 298 296 298 299 299 297 285 243 185
347 354 8 36 63 65 71 48 337 328 322 315 299 247 232 197 122 96 38 47 214 213 123 130 240 244 176 183 245 272 276 285 341 358 316 281 300 329 8 15 247 280 353 310 261 239 33 27 53 217 254 259 252 245 259 292 306 299 293 292 292 292 290 287 296 307 309 308 312 323 330 324 317 320 323 310 302 296 290 289 293 308 306 293 267 163 120
356 4 11 17 22 192 268 312 319 320 320 320 146 168 231 61 82 336 292 112 166 237 183 203 237 225 176 201 262 265 225 202 3 344 290 289 309 295 321 334 297 357 12 305 282 325 6 332 333 342 294 288 287 277 287 304 304 293 289 291 292 296 296 291 299 308 309 308 312 317 320 313 306 304 303 297 295 294 289 288 339 54 35 24 74 95 94
3 8 3 357 325 298 308 319 326 329 357 112 95 40 47 79 160 199 176 124 227 224 193 198 233 224 189 199 261 269 212 186 241 273 256 266 268 215 90 302 272 355 9 286 279 345 10 287 317 350 279 263 274 289 299 305 301 295 295 296 297 299 298 293 302 309 307 302 305 309 311 305 298 297 294 289 291 298 315 59 74 67 62 62 69 78 83
351 351 331 300 299 305 312 322 336 24 107 63 33 63 84 282 263 206 139 199 263 253 205 164 201 268 230 187 200 245 235 217 201 140 108 284 282 33 73 270 268 64 334 257 259 54 66 325 302 279 245 251 276 296 306 310 308 307 308 307 303 300 296 298 312 320 323 321 316 314 314 311 306 301 296 292 299 341 65 83 79 72 71 71 73 78 83
320 309 295 289 292 299 308 323 356 74 64 50 41 341 289 263 263 311 317 238 233 247 228 177 197 242 235 186 184 225 245 249 77 81 80 279 277 186 147 288 4 59 244 249 267 58 48 316 285 263 260 277 297 305 312 314 313 312 312 309 304 302 308 316 325 334 340 337 328 323 322 322 327 333 344 46 76 75 74 78 78 77 77 79 80 80 81
321 311 292 282 288 294 303 316 326 53 62 64 53 343 332 324 314 313 297 272 253 256 244 230 250 286 290 249 229 245 255 302 44 84 137 256 274 51 54 19 20 213 236 257 47 49 301 254 242 253 276 297 306 309 315 316 313 311 312 315 330 360 4 349 344 355 360 355 352 357 355 358 26 49 66 85 92 86 79 81 85 86 87 85 82 78 78
336 332 319 263 296 294 323 316 322 95 55 357 129 126 336 323 322 312 296 285 281 266 245 236 32 353 291 275 283 297 297 326 41 59 299 285 331 58 60 262 246 244 274 4 34 321 256 235 231 257 289 306 312 315 319 318 314 311 309 325 359 14 11 360 4 16 12 4 10 23 27 34 59 70 72 77 84 84 81 85 89 91 91 88 82 78 80
348 355 34 4 331 323 73 347 339 16 232 229 171 145 203 274 275 277 271 251 236 246 264 129 125 186 254 271 293 289 293 350 47 309 270 10 31 8 235 229 237 328 9 352 330 313 295 276 270 288 305 311 316 320 321 319 315 313 316 354 7 3 1 7 17 22 16 10 20 33 38 46 64 71 67 66 72 78 80 84 89 91 89 87 84 83 85
346 300 59 25 321 306 61 324 301 301 239 204 170 163 222 248 251 260 268 252 228 224 219 183 178 215 260 287 306 279 310 56 71 256 130 85 63 258 237 213 23 25 24 349 316 284 262 263 276 297 306 308 314 319 321 323 327 331 345 16 12 359 10 21 22 19 22 31 40 47 50 54 64 72 71 67 68 74 79 84 90 93 93 91 90 90 89
319 307 62 76 304 309 328 200 218 229 232 224 209 217 240 259 263 264 264 254 233 210 199 202 222 251 267 278 283 286 314 53 75 272 309 99 183 277 332 39 358 270 138 273 267 255 253 271 287 295 300 309 316 320 324 331 338 340 344 357 11 11 17 29 36 35 38 45 50 52 54 59 67 75 78 76 73 76 84 90 94 98 98 98 97 95 92
298 346 73 122 235 256 234 238 273 276 253 242 250 259 271 290 292 289 289 281 229 181 191 258 351 336 313 320 324 267 293 355 323 275 288 93 90 325 6 14 305 270 203 206 229 241 256 275 286 295 304 312 315 318 325 333 336 340 347 359 12 19 21 32 46 48 49 55 58 56 56 64 72 79 83 82 79 80 88 95 98 100 102 102 100 97 94
241 275 191 192 248 249 233 250 315 310 288 284 298 308 320 318 298 294 301 306 270 205 203 186 136 167 276 289 49 8 304 317 265 306 349 30 33 270 94 309 287 285 261 224 225 245 262 272 288 306 311 308 312 319 327 332 333 334 340 349 8 38 51 45 50 56 60 63 64 62 61 68 76 81 84 83 80 80 86 92 96 98 99 101 101 99 96
224 232 209 207 246 271 279 329 331 296 294 315 322 308 308 307 293 291 301 306 300 322 1 33 107 151 260 326 29 359 287 252 186 90 358 278 226 177 137 237 242 241 241 242 247 257 268 280 300 311 303 303 312 319 324 332 333 326 328 340 1 45 79 65 59 65 67 69 72 69 64 62 66 73 80 83 82 80 80 82 87 93 96 99 101 101 99
235 248 235 219 217 228 249 309 289 272 283 299 294 281 286 286 272 280 307 334 338 340 337 244 185 66 37 35 142 242 258 249 143 112 249 243 197 140 171 240 242 233 241 261 267 265 271 282 289 280 288 304 313 313 316 325 321 313 320 334 350 58 112 106 102 92 82 83 87 82 73 69 73 79 85 88 86 81 76 74 81 92 97 99 101 103 103
230 239 255 252 233 222 233 255 260 254 259 267 263 256 249 246 256 275 311 336 314 272 252 201 128 92 81 217 206 201 294 345 4 291 260 252 216 177 195 224 241 244 248 263 275 277 276 272 257 244 262 294 308 308 314 321 317 312 322 338 309 180 169 134 132 131 115 107 106 100 94 96 100 99 96 94 91 87 83 81 86 94 99 101 103 105 106